MST,Max TemperatureF,Mean TemperatureF,Min TemperatureF,Max Dew PointF,MeanDew PointF,Min DewpointF,Max Humidity, Mean Humidity, Min Humidity, Max Sea Level PressureIn, Mean Sea Level PressureIn, Min Sea Level PressureIn, Max VisibilityMiles, Mean VisibilityMiles, Min VisibilityMiles, Max Wind SpeedMPH, Mean Wind SpeedMPH, Max Gust SpeedMPH,PrecipitationIn, CloudCover, Events, WindDirDegrees
2012-11-1,52,44,36,41,38,35,100,83,66,29.99,29.86,29.81,10,10,7,23,7,31,0.08,5,Fog-Rain,303
2012-11-2,57,48,39,40,35,31,85,62,38,30.15,30.07,29.96,10,10,10,21,9,26,0.01,5,Rain,250
2012-11-3,61,46,31,32,28,25,85,56,26,30.18,30.11,30.05,10,10,10,16,11,21,T,2,Rain,229
2012-11-4,60,53,46,38,34,26,71,53,35,30.26,30.17,30.03,10,10,10,25,10,31,T,5,,275
2012-11-5,69,55,40,37,35,34,76,54,31,30.21,30.08,29.95,10,10,10,33,15,41,0.00,2,,253
2012-11-6,59,47,34,37,34,30,89,63,36,30.26,30.13,29.93,10,10,10,18,8,22,0.00,1,,220
2012-11-7,73,59,45,38,30,27,54,37,20,29.95,29.79,29.64,10,10,10,23,14,29,0.00,3,,258
2012-11-8,46,39,31,33,28,26,85,65,45,30.04,29.94,29.77,10,10,10,26,15,33,0.01,8,Rain,49
2012-11-9,35,28,21,30,26,18,100,89,78,29.90,29.78,29.67,10,4,0,23,11,29,0.04,8,Fog-Snow,10
2012-11-10,21,15,8,18,12,1,92,80,67,30.15,29.96,29.80,10,4,0,15,8,18,0.18,8,Fog-Snow,3
2012-11-11,27,17,6,15,8,2,80,68,55,30.29,30.20,30.07,10,10,10,26,18,35,0.00,3,,241
2012-11-12,37,26,15,21,13,7,67,57,47,30.31,30.25,30.20,10,10,10,25,15,35,0.00,4,,236
2012-11-13,46,38,29,27,22,17,64,55,45,30.27,30.23,30.16,10,10,10,22,14,26,0.00,3,,234
2012-11-14,48,41,34,30,26,23,70,60,49,30.30,30.16,30.09,10,10,10,20,12,23,T,4,,245
2012-11-15,51,40,28,28,25,21,78,54,30,30.34,30.24,30.08,10,10,10,21,11,25,0.00,1,,230
2012-11-16,51,42,33,26,24,20,64,49,33,30.05,30.00,29.96,10,10,10,21,10,24,0.00,4,,226
2012-11-17,58,46,34,31,27,25,75,53,30,30.06,29.96,29.79,10,10,10,21,10,23,0.00,1,,231
2012-11-18,60,48,36,34,29,22,65,52,38,30.04,29.85,29.71,10,10,10,21,9,25,T,3,Rain,266
2012-11-19,59,44,28,31,27,23,85,58,31,30.09,30.03,29.94,10,10,10,17,10,22,0.00,0,,227
2012-11-20,63,55,47,34,31,28,46,38,30,29.92,29.86,29.80,10,10,10,25,13,33,0.00,3,,242
2012-11-21,60,50,39,36,32,24,76,58,39,29.94,29.76,29.62,10,10,10,31,13,39,T,4,,263
2012-11-22,44,31,17,21,15,12,80,55,29,30.58,30.31,29.99,10,10,10,36,17,43,0.00,1,,300
2012-11-23,48,33,17,17,14,11,84,54,23,30.54,30.31,30.00,10,10,10,28,13,35,0.00,1,,222
2012-11-24,55,44,33,34,25,15,82,54,26,30.06,29.97,29.90,10,10,10,28,14,37,T,6,Rain-Snow,294
2012-11-25,33,30,26,32,29,25,100,93,85,30.35,30.08,29.95,10,2,0,16,5,20,0.30,7,Fog-Snow,31
2012-11-26,34,27,20,26,22,19,96,81,66,30.39,30.29,30.18,10,6,0,18,9,22,0.00,4,Fog,222
2012-11-27,39,32,24,27,22,18,84,72,59,30.22,30.18,30.14,10,10,10,17,6,20,0.00,1,,207
2012-11-28,51,39,27,29,24,21,81,60,39,30.13,30.00,29.85,10,10,10,20,10,23,0.00,1,,225
2012-11-29,57,48,38,35,30,23,65,51,36,29.91,29.87,29.82,10,10,10,21,10,26,0.02,3,Rain,240
2012-11-30,55,48,40,33,29,25,56,49,41,29.81,29.70,29.58,10,10,10,17,9,21,0.00,3,,232